DECAYED

DMSP 5D-2 F13 DEB, 42279 (Decayed)

Orbit data source: Space-Track

DMSP 5D-2 F13 DEB, 42279 was space debris in SSO originally from a launch on Fri, 24 Mar 1995 UTC launched from the Air Force Western Test Range (AFWTR). Debris objects in space refer to the collection of defunct objects orbiting the Earth. Examples of debris include non-operational satellites, rocket bodies, and fragments generated from explosions, collisions, or faulty payload assembly.

Not visible in the next 10 days
Identifier
42279, 1995-015GV
Orbit
Decayed
Country
Flag of USUS
Related business
Manufacturer
Unknown
Mission
Decayed spacecraft
Bus & Motor
Unknown
Mass
Unknown
Launch date (UTC)
1995-03-24 (31 years ago)
Launch vehicle
Unknown
Launch site
Air Force Western Test Range (AFWTR)
Object type
Payload
Rocket body
Debris
Shape & HBR
Unknown shape, 0.1 m
Radar Cross Section
Medium (>0.1 m² and <1 m²)

Expand to show TLE details & history
Last TLE update: 2 months ago

TLE from 2 months ago
0 DMSP 5D-2 F13 DEB
1 42279U 95015GV  26113.48074005  .03980362  00000-0  20160-1 0  9996
2 42279  98.6689 205.2875 0021329 288.2237  71.6704 15.77441860574925
Epoch: 2026-04-23T11:32Z
TLE epoch observation values (Epoch: 2026-04-23T11:32:15.940Z)
Latitude
0.00003°
Longitude
-179.30613°
Altitude
336.341 km
Speed
7.709 km/s
True Right ascension
13h 41m 08s
True Declination
0° 00' 00"
Sunlit
Object was in full shadow at epoch
Visualization orbit readout
Latitude
Unknown
Longitude
Unknown
Altitude
Unknown
Speed
Unknown
Apparent Right ascension
Unknown
Apparent Declination
Unknown
Sunlit
N/A
Visualization observer readout
Local Sidereal Time
23:19:53
Azimuth
Unknown
Elevation
Unknown
Doppler factor
Unknown
Orbital elements
Apogee altitude
348.959 km
Perigee altitude
320.324 km
Semi-major axis
6,712.778 km
Eccentricity
0.00213
Inclination
98.6689°
RAAN
205.2875°
Arg. of periapsis
288.2237°
True anomaly
71.90261°
Mean anomaly
71.6704°
Eccentric anomaly
71.78648°
Mean motion
3.9463 °/min
Orbital period
91.22 mins
BSTAR
0.02016
Loading maneuver chart data...
Computing Atmospheric mass density...

Documentation

Showing up to 5 results
|